Miscellaneous Local Product
Issued by NWS North Platte, NE

Home | Current Version | Previous Version | Text Only | Print | Product List | Glossary On
Versions: 1 2 3 4 5 6 7 8 9 10 11 12 13 14 15 16 17 18 19 20 21 22 23 24 25 26 27 28 29 30 31 32 33 34 35 36 37 38 39 40 41 42 43 44 45 46 47 48 49 50
607
AXUS43 KLBF 181110
MISLBF


WESTERN AND NORTH CENTRAL NEBRASKA HOURLY WEATHER ROUNDUP
NATIONAL WEATHER SERVICE NORTH PLATTE NE
500 AM CST SAT NOV 18 2017

NOTE: "FAIR" INDICATES FEW OR NO CLOUDS BELOW 12,000 FEET WITH NO
SIGNIFICANT WEATHER AND/OR OBSTRUCTIONS TO VISIBILITY.

NOTE: STATIONS NOT REPORTING VARIABLES SUCH AS SKY/WEATHER OR
PRESSURE ARE PROVIDED BY RAWS AND APRS NETWORKS AND ARE NOT UNDER
NATIONAL WEATHER SERVICE QUALITY CONTROL.

...OBSERVATIONS IN AND NEAR THE EASTERN PANHANDLE OF NEBRASKA...

CITY           SKY/WX    TMP DP  RH WIND       PRES   REMARKS
PINE RIDGE     CLEAR     20  18  92 SW6       30.03R WCI  12
GORDON         FAIR      32  26  78 W9        30.00R WCI  24
CHADRON        CLEAR     31  24  75 W12       30.07R WCI  22
ALLIANCE       CLEAR     31  23  72 NW20      30.04R WCI  19
SIDNEY         CLEAR     31  23  72 NW15      30.06R WCI  20
CRESCENT LAKE    N/A     31  26  81 NW16        N/A  WCI  20
$$

...OBSERVATIONS IN NORTHERN NEBRASKA AND FAR SOUTHERN SOUTH DAKOTA...

CITY           SKY/WX    TMP DP  RH WIND       PRES   REMARKS
WINNER         CLOUDY    40  36  86 W16       29.93R WCI  31
VALENTINE      MOCLDY    36  33  89 NW10      29.95R WCI  28
THEDFORD       MOCLDY    37  35  93 NW15G25   29.95R WCI  28
AINSWORTH      CLOUDY    37  36  99 NW14      29.90S WCI  28
O`NEILL        CLOUDY    37  34  87 NW17      29.88R WCI  28
ORD            CLOUDY    38  35  89 NW14      29.85R WCI  30
BROKEN BOW     CLOUDY    37  34  89 NW15      29.90R WCI  28
VALENTINE NWR    N/A     35  34  97 NW9G16      N/A  WCI  28
HALSEY           N/A     35  35 100 NW7         N/A  WCI  29
BUTTE            N/A     37  33  87 NW17        N/A  WCI  27
CHAMBERS         N/A     38  34  85 SE3         N/A
EWING            N/A     37  33  86 N8          N/A  WCI  31
$$

...OBSERVATIONS IN SOUTHWEST NEBRASKA AND FAR NORTHEAST COLORADO...

CITY           SKY/WX    TMP DP  RH WIND       PRES   REMARKS
HOLYOKE        FAIR      37  28  70 NW23G33   30.03R WCI  26
IMPERIAL       CLOUDY    38  34  85 NW23G33   29.98R WCI  27
OGALLALA       PTCLDY    38  33  81 NW21G28   30.00R WCI  27
NORTH PLATTE   MOCLDY    38  35  89 NW10      29.96R WCI  31
MCCOOK         CLOUDY    38  36  92 N20G28    29.95R WCI  28
LEXINGTON      CLOUDY    38  34  86 N15       29.90R WCI  29
STAPLETON        N/A     35  33  94 W3          N/A
GOTHENBURG       N/A     37  33  85 NW9         N/A  WCI  30
CALLAWAY         N/A     36  34  94 NW17        N/A  WCI  26
$$

...OBSERVATIONS IN CENTRAL LINCOLN COUNTY AREA...

CITY           SKY/WX    TMP DP  RH WIND       PRES   REMARKS
N.P. AIRPORT   MOCLDY    38  35  89 NW10      29.96R WCI  31
N.P. DOWNTOWN    N/A     37  35  91 NW3         N/A
N.P. SOUTHEAST   N/A     37  34  88 NW6         N/A  WCI  32
N.P. HILLCREST   N/A     48  33  56 N9          N/A
$$

...SOME OBSERVATIONS FROM AROUND THE REGION...

CITY           SKY/WX    TMP DP  RH WIND       PRES   REMARKS
DENVER         PTCLDY    30  19  63 W13       30.12R WCI  20
LIMON          CLEAR     29  22  75 NW28G37   30.08R WCI  14
ASPEN          CLOUDY    18  14  84 CALM      30.25R
LARAMIE        CLOUDY    21  14  74 NW14      30.10R WCI   8
CASPER         CLEAR     16  11  80 SW8       30.13R WCI   5
CHEYENNE       CLEAR     23  16  74 NW10      30.09R WCI  12
SCOTTSBLUFF    CLEAR     32  19  58 NW14      30.09R WCI  22
GRAND ISLAND   CLOUDY    39  36  89 N23G29    29.84R WCI  28
OMAHA          LGT RAIN  39  35  86 NW20G32   29.74R WCI  29
SIOUX FALLS    MOCLDY    34  26  72 NW14      29.81R WCI  25
PIERRE         CLEAR     35  31  85 NW16      29.92R WCI  25
RAPID CITY     MOCLDY    35  21  56 NW17G29   30.01R WCI  25
BISMARCK       MOCLDY    23  18  81 NW8       29.98R WCI  14
KANSAS CITY    CLOUDY    50  49  96 N23G30    29.49R FOG
HILL CITY      LGT RAIN  40  39  97 NW18G28   29.90R WCI  31
WICHITA        CLOUDY    49  41  74 N24G38    29.66R
DODGE CITY     LGT RAIN  45  41  86 NW24G37   29.86R
OKLAHOMA CITY  PTCLDY    54  43  66 NW35G43   29.65R
DALLAS         MOCLDY    70  64  81 SW10      29.68R
AMARILLO       CLEAR     45  33  63 N22G35    29.95R
$$




USA.gov is the U.S. government's official web portal to all federal, state and local government web resources and services.